SERVIS 2 DEB, 43394

Orbit data source: Space-Track

SERVIS 2 DEB, 43394 is space debris in SSO originally from a launch on Wed, 02 Jun 2010 UTC launched from the Plesetsk Missile And Space Complex (PKMTR). Debris objects in space refer to the collection of defunct objects orbiting the Earth. Examples of debris include non-operational satellites, rocket bodies, and fragments generated from explosions, collisions, or faulty payload assembly.

Loading next visibility...
Identifier
43394, 2010-023D
Orbit
SSO
Country
Flag of CISCIS
Related business
Manufacturer
MELCO
Mission
Spacecraft
Bus & Motor
Unknown
Mass
Unknown
Launch date (UTC)
2010-06-02 (15 years ago)
Launch vehicle
Unknown
Launch site
Plesetsk Missile And Space Complex (PKMTR)
Object type
Payload
Rocket body
Debris
Shape & HBR
Unknown shape, 0.1 m
Radar Cross Section
Small (<0.1 m²)

Expand to show TLE details & history
Last TLE update: 2 weeks ago

TLE from 2 weeks ago
0 SERVIS 2 DEB
1 43394U 10023D   25293.80871935  .00010891  00000-0  15327-1 0  9999
2 43394 100.4855 302.5545 0020487 188.4291 171.6503 13.57082591 65179
Epoch: 2025-10-20T19:24Z
TLE epoch observation values (Epoch: 2025-10-20T19:24:33.351Z)
Latitude
-0.00004°
Longitude
-18.09017°
Altitude
1,064.133 km
Speed
7.313 km/s
True Right ascension
20h 10m 13s
True Declination
0° 00' 00"
Sunlit
Object was in daylight at epoch
Visualization orbit readout
Latitude
Unknown
Longitude
Unknown
Altitude
Unknown
Speed
Unknown
Apparent Right ascension
Unknown
Apparent Declination
Unknown
Sunlit
N/A
Visualization observer readout
Local Sidereal Time
16:34:19
Azimuth
Unknown
Elevation
Unknown
Doppler factor
Unknown
Orbital elements
Apogee altitude
1,058.853 km
Perigee altitude
1,028.443 km
Semi-major axis
7,421.785 km
Eccentricity
0.00205
Inclination
100.4855°
RAAN
302.5545°
Arg. of periapsis
188.4291°
True anomaly
171.6843°
Mean anomaly
171.6503°
Eccentric anomaly
171.66731°
Mean motion
3.39454 °/min
Orbital period
106.05 mins
BSTAR
0.015327
Loading maneuver chart data...
Computing Atmospheric mass density...
Loading historical data...
Loading historical data...
Loading historical data...
Loading historical data...
Loading historical data...
Loading historical data...
Loading historical data...
Other satellites on launch #23 in the year 2010 (2010-06-02 UTC)

Documentation

Showing up to 5 results
|